Regional Weather Roundup
Issued by NWS

Home | Current Version | Previous Version | Graphics & Text | Print | Product List | Glossary On
Versions: 1 2 3 4 5 6 7 8 9 10 11 12 13 14 15 16 17 18 19 20 21 22 23 24 25 26 27 28 29 30 31 32 33 34 35 36 37 38 39 40 41 42 43 44 45 46 47 48 49 50
000
ASUS43 KMPX 070710
RWRMN
WEATHER ROUNDUP FOR MINNESOTA
NATIONAL WEATHER SERVICE TWIN CITIES/CHANHASSEN MN
200 AM CDT TUE JUL 07 2015


NOTE: "FAIR" INDICATES FEW OR NO CLOUDS BELOW 12,000 FEET WITH NO
SIGNIFICANT WEATHER AND/OR OBSTRUCTIONS TO VISIBILITY. N/A MEANS
CURRENT SKY AND/OR WEATHER CONDITIONS ARE NOT AVAILABLE.

MNZ060>063-068>070-070800-
   Twin Cities Metro

CITY           SKY/WX    TMP DP  RH WIND       PRES   REMARKS
TWIN CITIES    CLEAR     58  48  69 N12       30.06R
ST PAUL        PTCLDY    57  48  72 N8        30.06R
CRYSTAL        CLEAR     56  49  77 NW6       30.06R
BLAINE         CLEAR     55  50  82 NW7       30.07R
LAKEVILLE      CLEAR     54  48  82 NW7       30.06S
EDEN PRAIRIE   CLEAR     57  49  74 NW9       30.06R
SOUTH ST PAUL  CLOUDY    59  47  64 N8        30.06R
LAKE ELMO      FAIR      54  50  87 NW3       30.07R
$$
MNZ001>005-007-008-013>017-022>024-027-028-070800-
   Northwest Minnesota

CITY           SKY/WX    TMP DP  RH WIND       PRES   REMARKS
BEMIDJI        CLEAR     45  43  95 NW6       30.13S
HALLOCK        CLEAR     46  45  93 W3        30.16R
ROSEAU         CLEAR     50  45  81 W6        30.15R
WARROAD        CLEAR     48  43  81 W5        30.14S
THIEF RVR FALL CLEAR     48  46  93 CALM      30.16S
CROOKSTON      CLEAR     46  46 100 NW3       30.18R
FOSSTON        CLEAR     43  39  87 CALM      30.16S
DETROIT LAKES  CLEAR     50  45  81 NW5       30.17R
MOORHEAD       CLEAR     46  43  87 NW5       30.17S
PARK RAPIDS    CLEAR     49  45  86 NW6       30.13R
MAHNOMEN       FAIR      47  44  91 CALM      30.16R
$$
MNZ006-009>011-018-025>026-070800-
   North Central Minnesota

CITY           SKY/WX    TMP DP  RH WIND       PRES   REMARKS
BAUDETTE       CLEAR     47  44  90 W5        30.11S
FLAG ISLAND    CLEAR     54  45  71 W12       30.11S
INTL FALLS     CLEAR     46  44  93 NW3       30.09F
WASKISH        CLOUDY    55  48  76 NW7       30.13R
BIG FORK       CLEAR     45  43  93 CALM      30.11S
LONGVILLE      CLEAR     48  45  87 CALM      30.11S
GRAND RAPIDS   CLEAR     48  43  81 N7        30.10R
CRANE LAKE     CLOUDY    52  46  82 W1        30.10S
COOK           MOCLDY    50  45  81 CALM      30.09S
WALKER         FAIR      47  46  94 CALM      30.12S
$$
MNZ012-019>021-037-070800-
   Northeast Minnesota

CITY           SKY/WX    TMP DP  RH WIND       PRES   REMARKS
DULUTH         CLOUDY    55  42  61 N12       30.05S
ELY            CLOUDY    52  45  76 NW5       30.05F
HIBBING        PTCLDY    49  42  77 NW7       30.08S
DULUTH HARBOR    N/A     59  48  67 N12       30.06S
TWO HARBORS    CLOUDY    55  46  71 CALM      30.04R
SILVER BAY     CLOUDY    54  46  76 CALM      30.03S
GRAND MARAIS     N/A     49  46  90 CALM      30.01R
G MARAIS ARPRT MOCLDY    48  41  76 NW8       30.02R
$$
MNZ029>031-032-039>041-046>048-054>057-064-070800-
   West Central Minnesota

CITY           SKY/WX    TMP DP  RH WIND       PRES   REMARKS
FERGUS FALLS   CLEAR     48  45  87 N6        30.16S
WHEATON        CLEAR     48  46  93 NW5       30.18S
MORRIS         CLEAR     52  48  87 NW7       30.14S
ALEXANDRIA     CLEAR     52  46  80 NW7       30.15R
ELBOW LAKE     FAIR      53  47  81 N6        30.15S
WADENA         CLEAR     46  43  87 NW6       30.13S
GLENWOOD       CLEAR     48  45  87 NW7       30.13S
APPLETON       CLEAR     52  46  82 NW6       30.14S
BENSON         CLEAR     48  46  93 N3        30.14S
ORTONVILLE     CLEAR     52  46  82 N5        30.15S
MADISON        CLEAR     54  48  82 N8        30.14S
WILLMAR        FAIR      54  48  82 NW5       30.14R
$$
MNZ033>034-036-042>043-049>051-058-059-070800-
   Central Minnesota

CITY           SKY/WX    TMP DP  RH WIND       PRES   REMARKS
ST CLOUD       CLEAR     52  47  83 NW6       30.09S
SAUK CENTRE    FAIR      51  45  80 NW7       30.12S
PAYNESVILLE    CLEAR     48  45  90 W5        30.12R
AITKIN         CLEAR     52  45  76 N5        30.08S
PINE RIVER     CLEAR     54  46  76 NW5       30.14S
BRAINERD       CLEAR     55  43  63 N8        30.10S
STAPLES        CLEAR     48  45  87 NW6       30.13R
LONG PRAIRIE   FAIR      48  43  81 NW6       30.13S
LITTLE FALLS   CLEAR     52  45  76 NW3       30.11R
LITCHFIELD     CLEAR     54  48  82 NW6       30.11S
BUFFALO        CLEAR     54  46  75 NW7       30.09S
MAPLE LAKE     CLEAR     54  49  85 NW5       30.10S
$$
MNZ037-044-045-052-053-070800-
   East Central Minnesota

CITY           SKY/WX    TMP DP  RH WIND       PRES   REMARKS
PRINCETON      CLEAR     52  48  87 NW5       30.09R
MORA           CLEAR     50  45  81 CALM      30.09S
CAMBRIDGE      CLEAR     54  45  71 CALM      30.06R
RUSH CITY      MOCLDY    53  47  81 N3        30.07
MOOSE LAKE     CLOUDY    54  43  66 CALM      30.05S
HINCKLEY       FAIR      50  48  93 NW5       30.07S
CLOQUET        CLOUDY    54  43  66 NW5       30.06S
MCGREGOR       CLEAR     50  43  76 NW7       30.09R
$$
MNZ071>073-080-081-089-090-097-098-070800-
   Southwest Minnesota

CITY           SKY/WX    TMP DP  RH WIND       PRES   REMARKS
GRANITE FALLS  CLEAR     51  48  90 NW5       30.15S
CANBY          CLEAR     52  49  90 NW7       30.16S
MARSHALL       CLEAR     52  45  76 NW9       30.12S
REDWOOD FALLS  CLEAR     53  48  83 NW6       30.11S
OLIVIA         CLEAR     48  45  87 NW6       30.11S
PIPESTONE      CLEAR     54  48  82 CALM      30.14S
WINDOM         CLEAR     52  48  87 NW5       30.13R
WORTHINGTON    CLEAR     52  46  82 NW3       30.14R
JACKSON        CLEAR     52  50  93 N5        30.13R
TRACY          CLEAR     53  50  91 N3        30.14R
SLAYTON        CLEAR     53  50  90 CALM      30.15R
$$
MNZ065>067-074>077-082>085-091>093-070800-
   South Central Minnesota

CITY           SKY/WX    TMP DP  RH WIND       PRES   REMARKS
MANKATO        CLEAR     54  46  76 NW8       30.09R
NEW ULM        CLEAR     52  48  87 NW7       30.10R
ST JAMES       CLEAR     52  48  87 W7        30.12R
FAIRMONT       CLEAR     54  45  71 N7        30.10R
GLENCOE        CLEAR     53  50  87 NW6       30.09S
OWATONNA       CLEAR     54  48  82 NW5       30.07R
WASECA         CLEAR     52  48  87 NW6       30.09R
ALBERT LEA     CLEAR     55  52  88 N7        30.06R
$$
MNZ078>079-086>088-094>096-070800-
   Southeast Minnesota

CITY           SKY/WX    TMP DP  RH WIND       PRES   REMARKS
ROCHESTER      CLEAR     55  49  80 N10       30.04R
RED WING       PTCLDY    57  48  72 CALM      30.03R
STANTON        CLEAR     55  48  76 N5        30.04S
DODGE CENTER   CLEAR     55  48  76 N9        30.05R
WINONA         PTCLDY    61  54  77 NW10      30.00R
AUSTIN         MOCLDY    57  50  77 N10       30.05R
PRESTON        PTCLDY    56  50  80 N10G16    30.03R
$$
ABBREVIATIONS USED IN REMARKS
   TC - TEMPERATURES IN CELSIUS
  WCI - WIND CHILL INDEX
   HX - HEAT INDEX
  VSB - VISIBILITY
$$


USA.gov is the U.S. government's official web portal to all federal, state and local government web resources and services.